GW1009 Weather Reports


time (UTC)temp
F
wind
direction
speed
knots
gust
knots
rain 1hr
in
rain 24hr
in
rain mn
in
humidity
%
barometer
mb
20260507130534 41 273 7.0 11.3 0.00 0.22 0.00 59 1010.9
20260507130034 41 292 6.1 9.6 0.00 0.22 0.00 60 1011.0
20260507125531 41 288 4.3 13.0 0.00 0.23 0.00 62 1010.9
20260507125031 40 279 7.0 13.0 0.00 0.23 0.00 63 1010.8
20260507124546 40 306 7.8 13.0 0.00 0.23 0.00 62 1011.0
20260507124031 40 295 6.1 13.0 0.00 0.23 0.00 62 1010.9
20260507123529 40 282 4.3 12.2 0.00 0.23 0.00 65 1010.9
20260507123030 39 286 6.1 13.0 0.00 0.23 0.00 66 1010.9
20260507122527 39 325 9.6 13.0 0.00 0.23 0.00 64 1010.8
20260507122026 39 270 7.0 13.0 0.00 0.23 0.00 68 1010.7
20260507121525 39 309 7.0 9.6 0.00 0.23 0.00 66 1010.7
20260507121024 39 310 6.1 10.4 0.00 0.23 0.00 67 1010.8
20260507120524 38 307 6.1 10.4 0.00 0.23 0.00 67 1010.7
20260507120021 38 304 6.1 8.7 0.00 0.23 0.00 69 1010.6
20260507115520 38 224 5.2 9.6 0.00 0.24 0.00 70 1010.5
20260507115021 38 298 5.2 9.6 0.00 0.24 0.00 69 1010.4
20260507114517 38 246 2.6 9.6 0.00 0.24 0.00 70 1010.5
20260507114016 38 305 2.6 7.8 0.00 0.24 0.00 71 1010.5
20260507113515 37 296 3.5 8.7 0.00 0.24 0.00 71 1010.6
20260507113017 37 285 2.6 8.7 0.00 0.24 0.00 72 1010.5
20260507112511 37 257 2.6 7.8 0.00 0.24 0.00 73 1010.6
20260507112009 37 302 1.7 7.0 0.00 0.24 0.00 73 1010.4
20260507111513 36 291 2.6 9.6 0.00 0.24 0.00 73 1010.5
20260507111006 36 314 5.2 9.6 0.00 0.24 0.00 72 1010.5
20260507110505 36 292 2.6 7.8 0.00 0.24 0.00 75 1010.5
20260507110011 35 264 3.5 9.6 0.00 0.24 0.00 76 1010.3
20260507105502 35 264 2.6 10.4 0.00 0.26 0.00 77 1010.1
20260507105103 35 229 1.7 10.4 0.00 0.26 0.00 77 1010.0
20260507104600 35 281 4.3 9.6 0.00 0.26 0.00 78 1010.0
20260507104059 34 239 3.5 9.6 0.00 0.26 0.00 80 1010.0
20260507103558 34 272 2.6 7.8 0.00 0.26 0.00 82 1009.8
20260507103056 34 246 0.9 6.1 0.00 0.26 0.00 82 1009.7
20260507102555 34 279 0.9 4.3 0.00 0.26 0.00 84 1009.7
20260507102054 34 292 0.9 5.2 0.00 0.26 0.00 85 1009.7
20260507101558 33 288 0.9 3.5 0.00 0.26 0.00 86 1009.7
20260507101055 33 275 0.0 3.5 0.00 0.26 0.00 86 1009.7
20260507100553 33 269 0.0 3.5 0.00 0.26 0.00 86 1009.8
20260507100056 33 254 0.0 7.0 0.00 0.26 0.00 86 1009.7
20260507095554 33 235 0.9 7.0 0.00 0.28 0.00 86 1009.8
20260507095052 34 286 0.0 2.6 0.00 0.28 0.00 86 1009.7
20260507094551 34 283 0.0 2.6 0.00 0.28 0.00 86 1009.7
20260507094053 34 282 0.0 2.6 0.00 0.28 0.00 86 1009.8
20260507093552 34 278 0.0 2.6 0.00 0.28 0.00 86 1009.9
20260507093050 34 278 0.0 2.6 0.00 0.28 0.00 86 1009.9
20260507092551 34 277 0.0 2.6 0.00 0.28 0.00 86 1009.9
20260507092052 34 293 0.9 3.5 0.00 0.28 0.00 87 1009.9
20260507091547 35 274 0.9 7.0 0.00 0.28 0.00 87 1010.0
20260507091047 35 290 0.9 7.0 0.00 0.28 0.00 87 1010.0
20260507090547 35 271 0.0 4.3 0.00 0.28 0.00 87 1009.9
20260507090045 35 294 0.0 6.1 0.00 0.28 0.00 87 1009.9
20260507085546 35 297 0.9 7.0 0.00 0.28 0.00 87 1009.9
20260507085043 35 289 0.9 5.2 0.00 0.28 0.00 87 1009.8
20260507084542 35 292 1.7 4.3 0.00 0.28 0.00 87 1009.7
20260507084041 35 291 0.9 4.3 0.00 0.28 0.00 87 1009.7
20260507083544 36 303 0.0 7.0 0.00 0.28 0.00 87 1009.7
20260507083041 36 299 0.9 7.0 0.00 0.28 0.00 87 1009.7
20260507082540 36 297 0.9 7.0 0.00 0.28 0.00 87 1009.7
20260507082039 36 285 1.7 7.0 0.00 0.28 0.00 88 1009.8
20260507081537 36 274 2.6 7.0 0.00 0.28 0.00 88 1009.7
20260507081038 36 290 1.7 7.0 0.00 0.28 0.00 88 1009.7
20260507080536 37 280 0.0 3.5 0.00 0.28 0.00 88 1009.7
20260507080037 37 281 0.0 2.6 0.00 0.28 0.00 88 1009.6
20260507075535 37 293 0.0 3.5 0.00 0.28 0.00 88 1009.7
20260507075036 37 244 0.9 5.2 0.00 0.28 0.00 88 1009.7
20260507074537 37 292 1.7 7.0 0.00 0.28 0.00 88 1009.6
20260507074033 37 308 1.7 7.8 0.00 0.28 0.00 88 1009.7
20260507073536 37 306 0.9 9.6 0.00 0.28 0.00 89 1009.7
20260507073032 38 285 5.2 9.6 0.00 0.28 0.00 89 1009.5
20260507072532 38 315 1.7 8.7 0.00 0.28 0.00 89 1009.6
20260507072031 38 279 5.2 9.6 0.00 0.28 0.00 90 1009.5
20260507071531 38 248 4.3 10.4 0.00 0.28 0.00 90 1009.6
20260507071028 38 300 6.1 10.4 0.00 0.28 0.00 91 1009.5
20260507070528 38 287 3.5 7.0 0.00 0.28 0.00 91 1009.4
20260507070031 38 290 2.6 5.2 0.00 0.28 0.00 91 1009.5
20260507065529 38 270 0.9 2.6 0.00 0.28 0.00 91 1009.6
20260507065027 38 293 0.0 3.5 0.00 0.28 0.00 91 1009.6
20260507064526 38 293 0.0 7.0 0.00 0.28 0.00 91 1009.6
20260507064026 38 285 2.6 7.0 0.00 0.28 0.00 91 1009.4
20260507063526 38 288 2.6 7.0 0.00 0.28 0.00 91 1009.3
20260507063036 38 294 3.5 7.8 0.00 0.28 0.00 91 1009.3
20260507062524 38 308 3.5 11.3 0.00 0.28 0.00 91 1009.2
20260507062024 38 295 6.1 11.3 0.00 0.28 0.00 91 1009.0
20260507061526 38 269 6.1 14.8 0.00 0.28 0.00 91 1009.1
20260507061023 38 312 9.6 16.5 0.00 0.28 0.00 91 1009.3
20260507060522 39 280 9.6 17.4 0.00 0.28 0.00 91 1009.3
20260507060035 39 299 11.3 17.4 0.00 0.28 0.00 91 1009.3
20260507055520 40 278 7.8 12.2 0.00 0.28 0.00 92 1009.2
20260507055018 40 331 4.3 8.7 0.00 0.28 0.00 92 1009.1
20260507054517 40 306 2.6 6.1 0.00 0.28 0.00 92 1009.1
20260507054017 41 313 2.6 9.6 0.00 0.28 0.00 92 1009.2
20260507053517 41 314 3.5 9.6 0.00 0.28 0.00 92 1009.2
20260507053016 41 309 2.6 8.7 0.00 0.28 0.00 92 1009.2
20260507052515 41 313 2.6 5.2 0.00 0.28 0.00 92 1009.2
20260507052014 41 294 0.9 7.0 0.00 0.28 0.00 92 1009.4
20260507051514 41 263 2.6 7.0 0.00 0.28 0.00 92 1009.3
20260507051015 41 298 0.9 6.1 0.00 0.28 0.00 92 1009.3
20260507050514 41 234 0.9 3.5 0.00 0.28 0.00 92 1009.4
20260507050012 41 290 0.9 3.5 0.00 0.28 0.00 92 1009.4
20260507045511 41 300 0.9 3.5 0.00 0.28 0.00 92 1009.3
20260507045011 41 302 0.9 3.5 0.00 0.28 0.00 92 1009.1
20260507044514 41 301 0.0 2.6 0.00 0.28 0.00 93 1009.2
20260507044009 41 309 0.0 3.5 0.00 0.28 0.00 93 1009.1
20260507043508 41 310 1.7 3.5 0.00 0.28 0.00 93 1009.0
20260507043008 41 297 0.9 1.7 0.00 0.28 0.00 93 1008.9
20260507042511 41 297 0.0 1.7 0.00 0.28 0.00 92 1009.0
20260507042006 41 297 0.0 0.9 0.00 0.28 0.00 92 1009.0
20260507041506 41 297 0.0 0.9 0.00 0.28 0.00 93 1009.1
20260507041005 40 297 0.0 2.6 0.00 0.28 0.00 93 1008.9
20260507040504 40 297 0.9 3.5 0.00 0.28 0.00 93 1008.9
20260507040006 40 297 0.9 3.5 0.00 0.28 0.00 93 1008.9
20260507035502 41 286 0.0 2.6 0.00 0.28 0.28 93 1009.2
20260507035003 41 290 0.0 1.7 0.00 0.28 0.28 93 1009.3
20260507034506 41 290 0.0 4.3 0.00 0.28 0.28 93 1009.3
20260507034004 40 290 0.9 4.3 0.00 0.28 0.28 93 1009.1
20260507033504 40 284 1.7 4.3 0.00 0.28 0.28 93 1009.0
20260507033002 40 306 0.0 1.7 0.00 0.28 0.28 93 1009.1
20260507032501 40 306 0.0 3.5 0.00 0.28 0.28 93 1009.0
20260507032000 40 307 0.9 3.5 0.00 0.28 0.28 93 1008.9
20260507031502 40 312 0.9 3.5 0.00 0.28 0.28 93 1008.9
20260507031001 40 290 0.9 2.6 0.00 0.28 0.28 93 1009.0
20260507030501 40 293 0.0 2.6 0.00 0.28 0.28 93 1008.9
20260507030101 41 292 0.0 2.6 0.00 0.28 0.28 93 1008.9
20260507025602 41 299 0.0 1.7 0.00 0.28 0.28 93 1009.2
20260507025100 41 299 0.0 3.5 0.00 0.28 0.28 93 1009.1
20260507024600 41 299 1.7 3.5 0.00 0.28 0.28 93 1008.9
20260507024059 41 267 0.0 3.5 0.00 0.28 0.28 93 1009.1
20260507023601 41 294 0.9 3.5 0.00 0.28 0.28 93 1009.1
20260507023059 41 273 0.9 4.3 0.00 0.28 0.28 93 1009.3
20260507022601 41 301 0.9 3.5 0.00 0.28 0.28 93 1009.1
20260507022059 41 299 0.0 6.1 0.01 0.28 0.28 93 1009.1
20260507021600 41 293 1.7 5.2 0.01 0.28 0.28 93 1009.2
20260507021058 41 265 0.0 3.5 0.01 0.28 0.28 93 1009.5
20260507020600 41 265 0.0 3.5 0.01 0.28 0.28 93 1009.4
20260507020059 41 246 0.0 4.3 0.01 0.28 0.28 93 1009.3
20260507015557 41 270 0.0 3.5 0.01 0.28 0.28 93 1009.5
20260507015057 41 285 0.9 4.3 0.01 0.28 0.28 93 1009.5
20260507014602 41 299 0.9 4.3 0.01 0.28 0.28 93 1009.4
20260507014057 41 227 0.0 2.6 0.01 0.28 0.28 93 1009.5
20260507013556 41 288 0.0 2.6 0.01 0.28 0.28 93 1009.1
20260507013116 41 288 0.0 3.5 0.01 0.28 0.28 93 1009.3
20260507012556 41 273 0.9 2.6 0.01 0.28 0.28 93 1009.3
20260507012056 41 290 0.0 3.5 0.00 0.27 0.27 93 1009.0
20260507011603 41 292 0.0 3.5 0.00 0.27 0.27 93 1009.2
20260507011054 41 281 0.0 3.5 0.00 0.27 0.27 93 1009.2
20260507010554 41 286 0.0 2.6 0.00 0.27 0.27 93 1009.3
20260507010104 41 291 0.9 2.6 0.00 0.27 0.27 93 1009.2
20260507005555 41 294 0.0 4.3 0.00 0.27 0.27 93 1009.2
20260507005053 41 294 0.9 4.3 0.00 0.27 0.27 93 1009.0
20260507004552 41 283 0.0 2.6 0.00 0.27 0.27 93 1008.9
20260507004053 41 290 0.0 2.6 0.00 0.27 0.27 93 1008.6
20260507003550 42 252 0.0 3.5 0.00 0.27 0.27 93 1008.5
20260507003049 42 295 0.0 3.5 0.00 0.27 0.27 93 1008.4
20260507002548 42 237 0.0 2.6 0.00 0.27 0.27 93 1008.4
20260507002048 42 238 0.0 5.2 0.00 0.27 0.27 93 1008.3
20260507001551 42 290 0.0 5.2 0.00 0.27 0.27 93 1008.1
20260507001047 42 273 2.6 6.1 0.00 0.27 0.27 93 1008.2
20260507000549 42 285 0.0 6.1 0.00 0.27 0.27 93 1008.4
20260507000046 42 288 0.0 8.7 0.00 0.27 0.27 93 1008.3
20260506235545 42 273 4.3 8.7 0.00 0.27 0.27 93 1008.1
20260506235044 42 287 2.6 7.8 0.00 0.27 0.27 93 1008.1
20260506234545 42 329 3.5 9.6 0.00 0.27 0.27 93 1008.1
20260506234043 42 285 5.2 9.6 0.00 0.27 0.27 93 1008.0
20260506233544 42 302 5.2 12.2 0.00 0.27 0.27 93 1007.9
20260506233055 42 290 5.2 12.2 0.00 0.27 0.27 93 1007.6
20260506232539 42 325 7.0 12.2 0.00 0.27 0.27 93 1007.4
20260506232041 42 289 7.0 10.4 0.00 0.27 0.27 93 1007.5
20260506231540 42 288 5.2 12.2 0.00 0.27 0.27 93 1007.6
20260506231039 42 262 4.3 12.2 0.00 0.27 0.27 93 1007.6
20260506230536 43 272 4.3 13.9 0.00 0.27 0.27 93 1007.4
20260506230037 43 284 7.8 13.9 0.00 0.27 0.27 93 1007.1
20260506225540 43 296 6.1 12.2 0.01 0.27 0.27 93 1007.3
20260506225038 43 311 7.0 13.9 0.01 0.27 0.27 93 1007.0
20260506224536 43 295 8.7 13.9 0.01 0.27 0.27 93 1007.0
20260506224035 43 292 6.1 13.0 0.01 0.27 0.27 93 1007.0
20260506223536 43 279 5.2 15.6 0.01 0.27 0.27 93 1007.0
20260506223034 43 297 6.1 12.2 0.01 0.27 0.27 93 1006.9
20260506222534 43 298 5.2 12.2 0.01 0.27 0.27 93 1006.9
20260506222035 43 292 7.0 13.0 0.01 0.27 0.27 93 1006.9
20260506221533 43 320 7.0 14.8 0.01 0.27 0.27 93 1006.8
20260506221032 43 285 7.8 14.8 0.01 0.27 0.27 93 1006.8
20260506220534 43 263 9.6 14.8 0.01 0.27 0.27 93 1006.8
20260506220032 43 291 7.0 16.5 0.01 0.27 0.27 93 1006.8
20260506215531 43 289 9.6 16.5 0.00 0.26 0.26 93 1006.6
20260506215031 43 296 7.8 13.0 0.00 0.26 0.26 93 1006.6
20260506214531 43 290 7.8 12.2 0.00 0.26 0.26 93 1006.5
20260506214030 43 286 6.1 13.0 0.00 0.26 0.26 93 1006.5
20260506213530 43 286 7.0 15.6 0.00 0.26 0.26 93 1006.4
20260506213030 44 281 7.8 15.6 0.01 0.26 0.26 93 1006.3
20260506212531 44 273 7.0 14.8 0.01 0.26 0.26 93 1006.2
20260506212130 44 306 6.1 12.2 0.01 0.26 0.26 93 1006.2
20260506211530 44 298 7.0 12.2 0.01 0.26 0.26 93 1006.0
20260506211029 44 285 6.1 12.2 0.01 0.26 0.26 93 1005.9
20260506210527 44 317 6.1 10.4 0.02 0.26 0.26 93 1005.9
20260506210034 44 296 6.1 10.4 0.02 0.26 0.26 93 1005.9
20260506205529 44 288 6.1 11.3 0.02 0.26 0.26 93 1005.9
20260506205027 44 296 5.2 12.2 0.03 0.26 0.26 93 1005.8
20260506204527 44 313 6.1 12.2 0.03 0.26 0.26 93 1005.6
20260506204027 44 296 4.3 9.6 0.03 0.26 0.26 93 1005.8
20260506203529 44 297 5.2 9.6 0.04 0.26 0.26 93 1005.8
20260506203027 44 303 4.3 11.3 0.03 0.25 0.25 93 1005.7
20260506202527 44 290 6.1 11.3 0.03 0.25 0.25 93 1005.7
20260506202026 44 298 4.3 8.7 0.03 0.25 0.25 93 1005.7
20260506201530 44 296 5.2 9.6 0.03 0.25 0.25 93 1005.6
20260506201027 44 302 5.2 10.4 0.03 0.25 0.25 93 1005.6
20260506200525 44 311 4.3 10.4 0.02 0.24 0.24 93 1005.6
20260506200036 44 294 4.3 7.8 0.02 0.24 0.24 93 1005.5
20260506195525 44 310 4.3 9.6 0.02 0.24 0.24 93 1005.5
20260506195027 44 278 5.2 15.6 0.01 0.23 0.23 93 1005.5
20260506194525 44 302 8.7 15.6 0.02 0.23 0.23 93 1005.5
20260506194024 44 298 7.0 13.0 0.02 0.23 0.23 93 1005.5
20260506193524 44 321 6.1 8.7 0.01 0.22 0.22 93 1005.3
20260506193027 44 306 5.2 9.6 0.01 0.22 0.22 93 1005.4
20260506192524 44 279 5.2 9.6 0.01 0.22 0.22 93 1005.2
20260506192023 44 309 6.1 9.6 0.01 0.22 0.22 93 1005.2
20260506191523 44 313 6.1 9.6 0.01 0.22 0.22 93 1005.1
20260506191022 44 317 5.2 9.6 0.01 0.22 0.22 93 1005.1
20260506190525 45 288 4.3 7.0 0.01 0.22 0.22 93 1005.0
20260506190021 45 304 3.5 7.0 0.01 0.22 0.22 93 1004.9
20260506185521 45 296 2.6 7.0 0.01 0.22 0.22 93 1004.8
20260506185022 45 291 3.5 7.8 0.01 0.22 0.22 93 1004.8
20260506184521 45 281 3.5 7.0 0.00 0.21 0.21 93 1004.8
20260506184021 45 265 3.5 7.0 0.00 0.21 0.21 93 1004.9
20260506183521 44 287 2.6 7.8 0.00 0.21 0.21 93 1004.7
20260506183021 44 288 1.7 7.8 0.00 0.21 0.21 93 1004.7
20260506182520 44 308 2.6 6.1 0.00 0.21 0.21 93 1004.7
20260506182020 44 305 0.9 7.8 0.00 0.21 0.21 93 1004.7
20260506181521 44 320 5.2 8.7 0.00 0.21 0.21 93 1004.6
20260506181020 44 276 4.3 8.7 0.00 0.21 0.21 93 1004.7
20260506180520 44 280 0.9 7.0 0.00 0.21 0.21 93 1004.8
20260506180020 44 300 2.6 7.8 0.00 0.21 0.21 93 1004.5
20260506175520 44 309 4.3 7.8 0.00 0.21 0.21 93 1004.6
20260506175018 44 295 2.6 5.2 0.01 0.21 0.21 93 1004.6
20260506174519 44 288 2.6 6.1 0.01 0.21 0.21 93 1004.5
20260506174018 44 296 0.9 4.3 0.01 0.21 0.21 93 1004.4
20260506173518 44 302 0.9 4.3 0.01 0.21 0.21 93 1004.4
20260506173022 44 301 0.9 3.5 0.01 0.21 0.21 93 1004.4
20260506172518 44 306 0.9 5.2 0.01 0.21 0.21 93 1004.5
20260506172017 44 300 2.6 5.2 0.01 0.21 0.21 93 1004.5
20260506171518 44 305 2.6 4.3 0.01 0.21 0.21 93 1004.6
20260506171021 44 295 1.7 3.5 0.02 0.21 0.21 93 1004.6
20260506170518 44 289 1.7 3.5 0.02 0.21 0.21 93 1004.5
20260506170016 44 288 1.7 3.5 0.03 0.21 0.21 93 1004.7
20260506165516 43 298 1.7 4.3 0.04 0.21 0.21 93 1004.6
20260506165017 43 299 1.7 4.3 0.03 0.20 0.20 93 1004.6
20260506164516 43 321 2.6 7.0 0.03 0.20 0.20 93 1004.5
20260506164015 44 292 2.6 7.0 0.03 0.20 0.20 93 1004.6
20260506163516 44 298 3.5 9.6 0.04 0.20 0.20 93 1004.7
20260506163017 44 304 5.2 9.6 0.04 0.20 0.20 93 1004.7
20260506162514 44 331 5.2 8.7 0.05 0.20 0.20 93 1004.7
20260506162013 44 304 4.3 9.6 0.05 0.20 0.20 93 1004.7
20260506161513 45 300 5.2 8.7 0.05 0.20 0.20 93 1004.8
20260506161011 45 289 1.7 3.5 0.04 0.19 0.19 93 1004.6
20260506160511 45 306 0.0 6.1 0.03 0.18 0.18 93 1004.4
20260506160015 45 304 3.5 6.1 0.03 0.18 0.18 93 1004.6
20260506155514 45 328 2.6 9.6 0.02 0.17 0.17 93 1004.6
20260506155009 46 310 5.2 9.6 0.02 0.17 0.17 92 1004.6
20260506154508 46 332 5.2 10.4 0.02 0.17 0.17 92 1004.5
20260506153507 48 325 7.0 10.4 0.02 0.16 0.16 92 1004.3
20260506153007 49 341 6.1 10.4 0.02 0.16 0.16 92 1004.4
20260506152506 51 302 7.0 9.6 0.01 0.15 0.15 92 1004.4
20260506152005 51 318 5.2 7.8 0.01 0.15 0.15 93 1004.2
20260506151507 52 325 2.6 7.0 0.02 0.15 0.15 93 1004.1
20260506151005 52 309 1.7 7.0 0.02 0.15 0.15 93 1004.0
20260506150504 52 301 2.6 4.3 0.03 0.15 0.15 93 1004.0
20260506150005 52 292 1.7 4.3 0.03 0.15 0.15 92 1004.1
20260506145503 53 299 2.6 9.6 0.04 0.15 0.15 93 1004.1
20260506145004 53 220 1.7 9.6 0.05 0.15 0.15 93 1004.1
20260506144503 53 221 2.6 7.0 0.05 0.15 0.15 93 1004.1
20260506144003 53 209 3.5 7.8 0.05 0.14 0.14 94 1004.1
20260506143600 53 182 3.5 7.8 0.06 0.14 0.14 94 1004.3
20260506143102 53 219 4.3 7.8 0.07 0.14 0.14 94 1004.3
20260506142558 52 225 1.7 7.8 0.07 0.14 0.14 94 1004.4
20260506142057 52 205 2.6 7.8 0.08 0.14 0.14 94 1004.4
20260506141610 52 211 2.6 7.8 0.07 0.13 0.13 94 1004.3
20260506141055 51 205 1.7 4.3 0.07 0.13 0.13 94 1004.4
20260506140555 50 239 0.0 0.9 0.06 0.12 0.12 93 1004.4
20260506140053 50 319 0.0 1.7 0.06 0.12 0.12 93 1004.6
20260506135552 50 319 0.9 2.6 0.05 0.11 0.11 93 1004.7
20260506135052 50 319 0.9 2.6 0.04 0.10 0.10 93 1004.7
20260506134552 50 319 1.7 2.6 0.04 0.10 0.10 93 1004.9
20260506134052 50 319 0.9 3.5 0.03 0.09 0.09 93 1004.8
20260506133552 50 319 1.7 3.5 0.03 0.08 0.08 93 1004.8
20260506133101 50 313 1.7 3.5 0.02 0.07 0.07 93 1004.8
20260506132551 50 211 0.0 3.5 0.02 0.07 0.07 93 1004.6
20260506132050 50 193 0.0 2.6 0.01 0.06 0.06 93 1004.6
20260506131554 50 125 0.0 1.7 0.01 0.06 0.06 93 1004.5
20260506131050 50 125 0.9 1.7 0.01 0.06 0.06 93 1004.4